Hourly Data Report for September 03, 2017

All times are specified in Local Standard Time (LST). Add 1 hour to adjust for Daylight Saving Time where and when it is observed.

POINT LEPREAU CS
NEW BRUNSWICK

45°04'23.040" N
66°26'57.090" W
6.00 m
8104201
71699
WPE

Download Data

Hourly Data (September 2017)
Hourly Data Report for September 3, 2017
Temp Definition
°C
Dew Point Temp Definition
°C
Rel Hum Definition
%
Wind Dir Definition
10's deg

Wind Spd Definition
km/h
Visibility Definition
km
Stn Press Definition
kPa
Hmdx Definition


Wind Chill Definition


Weather Definition


TIME
00:00 8.4 8.0 98 4 2   102.21     LegendNANA
01:00 8.3 8.0 98 0 1   102.24     LegendNANA
02:00 8.6 8.4 98 34 2   102.22     LegendNANA
03:00 8.1 7.9 99 3 3   102.21     LegendNANA
04:00 7.5 7.2 98 4 2   102.20     LegendNANA
05:00 8.2 8.0 99 4 3   102.20     LegendNANA
06:00 9.2 9.1 99 3 4   102.21     LegendNANA
07:00 11.8 11.7 99   0   102.32     LegendNANA
08:00 14.4 13.5 94 20 5   102.32     LegendNANA
09:00 13.6 12.9 96 12 8   102.33     LegendNANA
10:00 13.5 12.6 95 11 10   102.26     LegendNANA
11:00 13.8 12.1 89 11 10   102.19     LegendNANA
12:00 14.6 11.6 82 11 6   102.18     LegendNANA
13:00 15.0 11.8 81 9 9   102.10     LegendNANA
14:00 14.4 11.9 85 9 12   102.01     LegendNANA
15:00 14.3 11.9 85 9 13   101.92     LegendNANA
16:00 14.4 12.2 87 9 13   101.86     LegendNANA
17:00 14.2 12.1 87 10 16   101.72     LegendNANA
18:00 14.2 12.0 86 9 16   101.60     LegendNANA
19:00 14.2 11.7 85 10 19   101.46     LegendNANA
20:00 13.9 12.1 89 10 20   101.35     LegendNANA
21:00 12.7 12.3 97 9 22   101.22     LegendNANA
22:00 12.5 12.4 99 7 20   100.99     LegendNANA
23:00 12.6 12.6 100 7 19   100.79     LegendNANA

Notes on Data Quality.

Legend

  • E = Estimated
  • M = Missing
  • NA = Not Available
  • ‡ = Partner data that is not subject to review by the National Climate Archives
Date modified: